CZ-6A DEB

Satellite information

Favourite Embed

Satellite Type and Status

DEBRISIN ORBIT

Key statistics

Satellite CZ-6A DEB at a glance.

Uptime

1076

Days in orbit

Revolutions

≈ 14.1

Per day

Orbit

SSO

Sun Synchronous Orbit

Inclination

98.8

Latest

Satellite identification and parameters

Extended collection of information and parameters for CZ-6A DEB.

Object identification

Identified? True

Debris? True

Object name: CZ-6A DEB

International designator: 2022-151BJ

Object number (NORAD): 54315

Object ID (CCSDS): 54315

Country: PEOPLES REPUBLIC OF CHINA (PRC)

Current information (Y/N): Y

RCS size: SMALL

Orbital parameters

Period: 102.075 minutes

Inclination: 98.8451 deg

SMA: 7235.005 km

Apoapsis: 887.885 km

Periapsis: 825.856 km

RAAN: 296.7079 deg

Eccentricy: 0.0042867

Argument of periapsis: 299.7894 deg

Mean anomaly: 59.9017 deg

Mean motion: 14.10731876 rev/day

Mean motion (dot): 0.00000478 rev/day2

B* drag term: 0.0002893 1/REarth

Two-line elements (TLE)

Creation date: Oct. 22, 2025, 12:06 a.m.

Reference frame: TEME

Reference center: EARTH

Epoch: Oct. 21, 2025, 1:03 p.m. UTC

TLE line 0: 0 CZ-6A DEB

TLE line 1: 1 54315U 22151BJ 25294.54397436 .00000478 00000-0 28930-3 0 9996

TLE line 2: 2 54315 98.8451 296.7079 0042867 299.7894 59.9017 14.10731876150869

Live tracking on map

Real-time ground track for satellite CZ-6A DEB.

In-orbit conjunctions

A list of the most updated potential collisions computed for object CZ-6A DEB.

Target Orbit TCA Probability of collision Miss distance Type
FENGYUN 1C DEB SSO 2025-10-06 13:14:00 0.0001904618 134.0 (m) DEBRIS
SL-14 DEB LEO 2024-09-15 01:42:38 0.0003221672 55.0 (m) DEBRIS

Associated space launch

Chinese satellite reported for atmospheric/ocean/environmental/spatial parameter research purposes, details TBD.

CZ-6A DEB was lifted into orbit during the mission ‘Long March 6A | Yunhai 3’, on board a Long March 6A space rocket.

The launch took place on Nov. 11, 2022, 10:52 p.m. from Launch Complex 9A.

For more information about the launch, click the button.

Launch to space Long March 6A | Yunhai 3
Long March 6A | Yunhai 3

Agency: N/A

Status: Launch Successful

Launch date: Nov. 11, 2022, 10:52 p.m. UTC

Rocket: Long March 6A

Launch pad: Launch Complex 9A

Location: Taiyuan Satellite Launch Center, People's Republic of China

...

Latest news about this satellite

There are no fresh news available about this satellite. Check back as we update our databases every day.


Newsletter sign-up

Weekly statistics, charts and insights to help you stay on top of the space industry.